Temp
73 75 74 75 76 76 75 76 77 78 78 78 78 79 79 80 81 81 81 81 80 80 79 77 78 78 80 79 78 78 78 78 79 78 78 78 78 79 80 79 77 75
73 74 76 75 75 77 75 75 76 77 77 77 79 80 80 80 81 82 81 81 81 81 79 78 79 79 79 79 78 78 77 78 78 81 78 78 78 79 80 80 78 77
73 74 74 75 75 76 76 77 75 76 76 78 78 77 78 80 81 81 81 81 81 82 80 78 78 79 80 79 77 78 78 77 78 80 78 78 79 78 79 80 79 78
74 74 75 75 75 76 75 75 75 75 76 75 76 78 79 81 81 81 81 82 81 81 82 80 80 80 80 80 78 77 78 77 79 78 78 78 78 79 79 79 79 79
74 74 75 75 75 76 75 75 75 74 75 76 76 76 77 77 78 81 80 81 80 81 81 81 80 80 80 79 78 78 78 77 78 77 77 76 77 78 80 79 77 78
73 74 74 75 76 76 75 75 75 75 75 75 75 76 77 77 77 78 79 80 81 82 82 82 81 81 81 79 78 78 79 78 79 77 77 76 77 79 82 80 78 78
73 74 74 75 76 76 76 75 75 76 75 76 74 75 76 76 77 77 78 79 81 81 82 82 80 81 81 80 78 77 78 78 78 77 77 78 77 78 81 80 77 78
73 74 75 75 75 76 76 75 75 75 75 75 75 75 75 76 76 78 79 79 80 81 82 83 81 80 81 81 79 77 78 80 79 77 77 77 77 77 78 81 78 76
73 73 74 74 75 75 75 76 76 75 75 75 75 75 75 76 76 77 77 78 79 80 79 82 82 82 82 81 80 78 78 79 80 79 78 78 78 78 79 80 79 77
73 73 74 74 74 75 75 76 76 75 75 74 74 75 75 75 76 75 76 75 75 76 78 80 82 82 82 82 81 80 79 78 79 79 79 79 79 79 80 80 80 78
73 73 73 73 74 75 76 77 77 76 75 75 74 74 75 75 75 75 75 75 76 77 77 78 80 81 82 82 82 82 81 80 80 80 80 79 80 80 81 80 80 80
73 73 73 74 74 75 75 76 77 77 75 75 75 75 74 75 75 75 76 75 76 77 77 78 77 76 75 78 81 81 81 81 81 81 81 80 80 80 81 81 81 80
73 73 74 74 75 75 76 76 76 77 76 75 75 75 75 75 75 75 76 76 76 76 77 78 77 75 73 73 75 77 80 81 81 81 81 81 80 81 81 81 82 82
73 74 74 74 75 75 76 76 76 76 76 76 76 75 75 75 75 75 76 76 76 76 76 76 76 75 73 73 73 74 74 76 79 81 81 81 81 81 81 81 81 82
74 74 75 75 75 75 75 75 76 76 76 75 75 75 75 75 75 75 76 75 76 76 76 75 74 74 74 74 73 73 74 74 75 75 77 80 81 81 81 81 82 82
74 75 75 75 75 74 74 75 75 75 75 74 74 74 74 74 74 75 75 75 75 75 75 75 74 75 77 78 77 74 73 75 75 75 76 77 78 80 81 81 82 82
74 74 74 74 74 74 74 74 74 74 74 73 73 74 74 74 74 73 74 74 75 75 75 75 75 76 76 71 71 75 75 72 72 72 73 73 72 73 78 80 81 82
74 74 74 73 73 73 73 73 73 72 72 72 72 72 73 73 73 73 74 74 74 74 74 74 74 77 71 69 70 70 76 73 71 72 73 72 73 75 77 80 80 81
74 73 73 73 73 73 73 72 72 72 72 72 72 73 73 72 73 73 73 73 73 73 73 73 74 75 69 69 69 69 71 76 71 73 72 72 73 73 75 79 80 80
73 73 73 73 73 73 73 72 72 72 72 72 73 72 72 72 72 72 73 73 73 73 72 73 73 75 69 68 67 68 68 72 73 72 72 72 72 73 73 73 74 79
73 73 74 74 73 73 73 72 72 72 72 72 72 71 71 71 71 72 72 72 72 72 71 72 73 71 67 67 66 67 68 72 72 73 72 71 72 73 73 74 73 75
74 74 74 74 74 73 73 73 73 72 72 72 72 72 72 72 71 71 71 71 71 71 71 71 72 68 67 66 65 66 68 71 71 72 71 71 71 71 72 72 74 74
74 74 74 73 73 73 73 73 73 72 72 73 72 72 71 70 71 71 71 71 71 71 71 71 72 70 65 64 64 64 67 69 70 71 71 71 70 71 71 72 73 74
74 74 73 73 72 72 73 73 73 73 72 74 72 72 71 71 71 70 70 70 70 70 71 70 71 72 66 63 63 63 68 70 70 70 70 71 71 72 71 72 74 78
74 74 73 73 73 73 73 72 72 73 73 73 72 72 71 71 72 70 70 69 69 70 72 72 71 72 64 61 61 61 67 70 70 70 70 70 70 71 71 72 72 76
74 75 74 73 73 73 72 72 73 72 72 72 71 71 71 70 70 70 69 69 69 69 70 70 70 71 69 60 60 60 64 71 70 70 69 69 70 70 70 71 72 73
MSLP
1013.41 1013.45 1013.61 1013.65 1013.65 1013.61 1013.77 1013.97 1014.05 1014.29 1014.53 1014.69 1014.97 1015.01 1015.01 1014.89 1014.85 1015.01 1015.13 1015.25 1015.37 1015.53 1015.69 1015.77 1015.85 1016.09 1016.13 1016.21 1016.29 1016.49 1016.65 1016.77 1016.81 1016.89 1017.05 1017.17 1017.33 1017.45 1017.65 1017.57 1017.57 1017.57
1013.33 1013.37 1013.41 1013.53 1013.57 1013.45 1013.57 1013.61 1013.81 1013.93 1014.17 1014.33 1014.41 1014.53 1014.57 1014.61 1014.69 1014.77 1014.97 1015.13 1015.21 1015.33 1015.41 1015.57 1015.65 1015.81 1015.93 1016.09 1016.17 1016.41 1016.57 1016.61 1016.81 1016.57 1016.93 1017.09 1017.17 1017.21 1017.37 1017.33 1017.37 1017.29
1013.17 1013.25 1013.33 1013.53 1013.65 1013.61 1013.53 1013.53 1013.61 1013.69 1013.85 1013.89 1013.97 1014.17 1014.37 1014.37 1014.57 1014.61 1014.73 1014.93 1015.13 1015.21 1015.29 1015.41 1015.53 1015.57 1015.69 1015.77 1015.93 1016.13 1016.37 1016.53 1016.65 1016.49 1016.65 1016.89 1016.89 1017.13 1017.13 1017.13 1017.21 1017.25
1013.05 1013.05 1013.09 1013.21 1013.33 1013.49 1013.49 1013.61 1013.65 1013.69 1013.69 1013.89 1013.93 1013.89 1014.01 1014.17 1014.29 1014.49 1014.61 1014.69 1014.89 1014.97 1015.01 1015.17 1015.33 1015.41 1015.49 1015.57 1015.77 1015.97 1016.05 1016.21 1016.17 1016.29 1016.53 1016.61 1016.69 1016.81 1016.97 1016.97 1017.05 1017.13
1013.01 1013.05 1013.01 1013.05 1013.09 1013.17 1013.37 1013.65 1013.73 1013.73 1013.73 1013.69 1013.77 1013.85 1014.01 1014.17 1014.29 1014.41 1014.53 1014.65 1014.69 1014.81 1014.85 1014.97 1015.09 1015.21 1015.29 1015.45 1015.61 1015.93 1015.97 1016.13 1016.09 1016.21 1016.49 1016.65 1016.57 1016.69 1016.73 1016.85 1017.01 1017.13
1012.85 1012.85 1012.93 1012.97 1012.97 1013.13 1013.37 1013.53 1013.57 1013.65 1013.69 1013.81 1013.77 1013.77 1013.85 1013.97 1014.17 1014.33 1014.41 1014.57 1014.61 1014.65 1014.73 1014.77 1014.93 1014.97 1015.09 1015.33 1015.53 1015.69 1015.81 1016.01 1016.05 1016.17 1016.41 1016.61 1016.61 1016.45 1016.49 1016.65 1016.85 1017.01
1012.81 1012.85 1012.89 1012.85 1012.89 1012.93 1013.17 1013.29 1013.41 1013.49 1013.61 1013.61 1013.65 1013.77 1013.73 1013.97 1014.13 1014.21 1014.29 1014.37 1014.45 1014.57 1014.61 1014.65 1014.77 1014.89 1014.89 1015.13 1015.45 1015.65 1015.65 1015.73 1015.85 1016.05 1016.33 1016.41 1016.49 1016.53 1016.37 1016.45 1016.65 1016.81
1012.77 1012.73 1012.77 1012.85 1012.97 1012.93 1013.09 1013.17 1013.29 1013.41 1013.41 1013.53 1013.69 1013.61 1013.61 1013.77 1013.89 1013.97 1014.05 1014.21 1014.33 1014.37 1014.45 1014.45 1014.53 1014.65 1014.69 1014.85 1015.29 1015.57 1015.65 1015.53 1015.73 1015.89 1016.13 1016.25 1016.29 1016.49 1016.45 1016.33 1016.45 1016.69
1012.65 1012.81 1012.81 1012.89 1013.01 1012.97 1013.05 1013.05 1013.09 1013.21 1013.25 1013.49 1013.53 1013.53 1013.49 1013.53 1013.65 1013.73 1013.81 1013.93 1014.09 1014.17 1014.25 1014.29 1014.33 1014.45 1014.45 1014.57 1014.85 1015.13 1015.41 1015.41 1015.37 1015.57 1015.81 1016.01 1016.17 1016.21 1016.21 1016.17 1016.37 1016.53
1012.61 1012.69 1012.85 1012.89 1013.01 1012.93 1012.97 1012.89 1012.89 1013.01 1013.05 1013.29 1013.33 1013.37 1013.45 1013.37 1013.37 1013.49 1013.65 1013.81 1013.97 1014.05 1014.05 1014.09 1014.09 1014.13 1014.17 1014.21 1014.41 1014.65 1014.93 1015.13 1015.13 1015.21 1015.33 1015.49 1015.65 1015.77 1015.85 1015.93 1016.09 1016.33
1012.33 1012.45 1012.69 1012.77 1012.85 1012.81 1012.81 1012.73 1012.77 1012.85 1012.97 1013.13 1013.25 1013.37 1013.29 1013.29 1013.33 1013.33 1013.53 1013.69 1013.85 1013.89 1013.93 1013.93 1013.85 1013.81 1013.89 1013.97 1013.97 1014.01 1014.29 1014.53 1014.69 1014.81 1014.93 1015.05 1015.13 1015.29 1015.37 1015.57 1015.73 1015.85
1012.09 1012.25 1012.37 1012.45 1012.57 1012.65 1012.65 1012.57 1012.57 1012.65 1012.81 1012.89 1012.97 1013.17 1013.13 1013.13 1013.21 1013.21 1013.29 1013.41 1013.45 1013.45 1013.53 1013.53 1013.53 1013.61 1013.65 1013.65 1013.65 1013.73 1013.85 1013.97 1014.13 1014.33 1014.45 1014.61 1014.73 1014.85 1014.97 1015.09 1015.29 1015.41
1011.89 1011.97 1012.05 1012.17 1012.25 1012.33 1012.33 1012.37 1012.37 1012.41 1012.53 1012.73 1012.69 1012.85 1012.93 1013.01 1012.97 1013.05 1013.01 1013.09 1013.13 1013.21 1013.25 1013.25 1013.33 1013.41 1013.57 1013.61 1013.49 1013.49 1013.61 1013.85 1013.97 1014.01 1014.09 1014.17 1014.29 1014.41 1014.53 1014.65 1014.77 1014.89
1011.57 1011.53 1011.73 1011.85 1011.93 1012.01 1012.13 1012.13 1012.17 1012.21 1012.25 1012.29 1012.41 1012.65 1012.69 1012.69 1012.73 1012.77 1012.69 1012.77 1012.81 1012.89 1012.89 1012.93 1013.09 1013.25 1013.33 1013.37 1013.45 1013.49 1013.61 1013.73 1013.73 1013.81 1013.85 1013.85 1013.89 1013.97 1014.09 1014.29 1014.37 1014.45
1011.29 1011.33 1011.37 1011.49 1011.65 1011.81 1011.93 1011.97 1011.97 1011.93 1011.93 1012.05 1012.17 1012.29 1012.29 1012.29 1012.29 1012.37 1012.53 1012.65 1012.61 1012.65 1012.73 1012.77 1012.97 1013.09 1013.05 1013.09 1013.25 1013.41 1013.41 1013.57 1013.65 1013.77 1013.77 1013.77 1013.69 1013.65 1013.73 1013.85 1014.01 1014.05
1011.01 1011.13 1011.21 1011.29 1011.45 1011.57 1011.65 1011.69 1011.69 1011.69 1011.77 1011.93 1012.05 1012.05 1012.09 1012.13 1012.21 1012.25 1012.37 1012.45 1012.57 1012.53 1012.57 1012.65 1012.69 1012.61 1012.53 1012.53 1012.65 1012.93 1013.17 1013.29 1013.45 1013.49 1013.57 1013.77 1013.81 1013.65 1013.57 1013.57 1013.65 1013.69
1010.73 1010.93 1011.01 1011.21 1011.21 1011.25 1011.29 1011.41 1011.49 1011.49 1011.65 1011.77 1011.89 1011.97 1012.01 1011.97 1012.05 1012.17 1012.21 1012.21 1012.29 1012.37 1012.41 1012.37 1012.29 1012.13 1012.09 1012.29 1012.33 1012.45 1012.85 1013.09 1013.29 1013.33 1013.29 1013.45 1013.61 1013.73 1013.57 1013.41 1013.37 1013.33
1010.53 1010.61 1010.77 1010.85 1010.93 1011.05 1011.09 1011.13 1011.21 1011.41 1011.57 1011.69 1011.77 1011.89 1011.85 1011.85 1011.97 1011.93 1011.93 1011.97 1012.01 1012.05 1012.09 1011.97 1011.89 1011.61 1011.69 1011.85 1011.97 1012.09 1012.21 1012.69 1013.17 1012.97 1013.05 1013.25 1013.33 1013.41 1013.25 1013.01 1013.01 1013.05
1010.29 1010.45 1010.53 1010.61 1010.65 1010.69 1010.77 1010.97 1011.13 1011.33 1011.49 1011.61 1011.69 1011.53 1011.57 1011.81 1011.81 1011.81 1011.81 1011.77 1011.81 1011.89 1011.85 1011.65 1011.57 1011.29 1011.37 1011.41 1011.49 1011.65 1011.77 1011.89 1012.17 1012.33 1012.73 1012.85 1012.85 1012.97 1012.93 1012.77 1012.61 1012.73
1010.05 1010.17 1010.33 1010.37 1010.37 1010.45 1010.61 1010.85 1011.05 1011.21 1011.17 1011.17 1011.25 1011.33 1011.53 1011.57 1011.57 1011.61 1011.53 1011.53 1011.49 1011.53 1011.45 1011.33 1011.21 1010.97 1010.97 1010.97 1010.97 1011.05 1011.21 1011.53 1011.61 1011.77 1012.05 1012.21 1012.25 1012.37 1012.57 1012.73 1012.81 1012.65
1009.85 1009.97 1010.09 1010.13 1010.21 1010.37 1010.53 1010.65 1010.81 1010.89 1011.01 1011.05 1011.13 1011.21 1011.33 1011.37 1011.33 1011.41 1011.29 1011.29 1011.25 1011.25 1011.25 1011.13 1010.81 1010.61 1010.65 1010.65 1010.57 1010.53 1010.65 1011.01 1011.09 1011.29 1011.49 1011.61 1011.77 1011.85 1011.97 1012.09 1012.37 1012.69
1009.65 1009.85 1009.97 1010.01 1010.13 1010.25 1010.45 1010.57 1010.61 1010.69 1010.77 1010.73 1010.85 1010.89 1010.81 1010.85 1010.89 1010.93 1011.01 1011.01 1010.97 1011.01 1011.09 1010.97 1010.49 1010.29 1010.21 1010.17 1010.05 1010.01 1010.09 1010.37 1010.57 1010.73 1011.05 1011.21 1011.33 1011.49 1011.61 1011.73 1011.93 1012.33
1009.49 1009.77 1009.93 1010.05 1010.13 1010.33 1010.57 1010.49 1010.49 1010.53 1010.49 1010.41 1010.65 1010.65 1010.69 1010.73 1010.69 1010.65 1010.57 1010.69 1010.77 1010.77 1010.85 1010.65 1010.25 1009.85 1009.77 1009.65 1009.57 1009.49 1009.73 1009.81 1009.97 1010.21 1010.61 1010.93 1011.09 1011.33 1011.61 1011.81 1011.97 1011.85
1009.41 1009.61 1009.89 1009.97 1010.17 1010.37 1010.37 1010.29 1010.17 1010.13 1010.21 1010.09 1010.41 1010.49 1010.57 1010.49 1010.45 1010.49 1010.45 1010.49 1010.53 1010.53 1010.45 1010.45 1009.97 1009.45 1009.29 1009.25 1009.17 1009.21 1009.29 1009.37 1009.33 1009.77 1010.13 1010.45 1010.85 1010.97 1011.13 1011.25 1011.37 1011.25
1009.25 1009.41 1009.57 1009.77 1009.97 1010.01 1009.97 1010.09 1010.09 1010.05 1009.89 1009.85 1009.97 1010.09 1010.17 1010.21 1010.25 1010.41 1010.41 1010.33 1010.33 1010.29 1010.09 1009.97 1009.65 1009.25 1009.01 1008.97 1008.89 1008.97 1008.89 1008.93 1009.13 1009.41 1009.85 1010.09 1010.45 1010.81 1010.73 1010.69 1011.01 1011.01
1009.13 1009.21 1009.29 1009.45 1009.61 1009.65 1009.85 1009.89 1009.61 1009.73 1009.77 1009.81 1009.85 1009.93 1010.05 1010.05 1010.09 1010.25 1010.37 1010.29 1010.13 1010.05 1009.89 1009.69 1009.53 1009.17 1008.85 1008.81 1008.73 1008.77 1008.69 1008.65 1008.93 1009.33 1009.73 1009.93 1010.05 1010.33 1010.61 1010.49 1010.61 1010.73
Wind_Speed
7 5 4 4 6 6 8 8 8 9 8 8 8 8 9 8 9 10 10 9 9 9 7 7 7 7 8 7 6 6 6 7 7 6 6 6 6 6 6 6 4 5
7 5 2 2 3 5 6 7 8 8 9 8 8 8 7 8 9 9 8 9 9 9 7 7 7 8 8 7 7 7 6 7 7 5 6 6 6 6 6 5 6 4
7 6 5 5 4 4 6 6 6 7 8 9 8 8 8 7 8 8 8 9 9 9 8 6 7 8 8 7 7 7 7 7 8 7 6 7 6 6 6 5 5 5
7 7 6 4 4 4 3 4 5 4 5 6 8 8 8 7 8 9 8 9 9 9 9 8 8 8 8 8 7 7 7 7 7 6 7 6 6 7 7 5 5 5
7 6 5 4 3 3 3 4 5 5 5 6 5 4 5 5 6 8 8 8 8 9 9 9 9 9 8 8 8 7 7 7 6 6 6 6 6 6 6 6 5 6
5 5 5 5 5 4 5 5 5 5 5 4 6 4 5 5 5 5 6 7 7 9 10 10 10 9 9 8 8 8 8 7 7 6 7 7 6 6 6 6 6 7
6 6 6 6 5 5 5 5 5 5 5 5 3 5 4 5 5 5 5 5 6 7 9 9 9 10 9 8 8 8 8 8 7 8 8 7 6 6 7 5 6 6
6 4 5 5 5 5 6 5 5 5 5 4 6 5 5 5 5 5 5 6 5 5 7 9 9 10 10 9 9 9 9 7 8 9 9 9 6 7 7 7 6 7
5 5 5 5 6 6 6 6 5 5 4 6 6 5 5 6 6 6 5 5 6 6 5 8 9 10 10 10 10 10 10 10 9 9 10 10 9 9 8 7 7 7
6 6 6 6 7 7 7 6 6 5 5 6 6 5 6 6 6 6 6 6 6 5 6 7 8 9 10 11 11 11 11 11 10 10 10 11 11 11 10 9 9 7
6 6 7 8 8 7 8 8 7 7 6 7 7 7 7 6 6 6 7 7 8 7 6 6 7 8 10 11 11 11 12 12 11 11 11 11 11 11 10 10 9 9
6 6 7 8 9 8 9 9 8 7 7 7 7 8 7 7 8 7 8 9 9 9 8 7 7 5 5 7 10 10 11 12 12 12 12 12 11 11 11 11 10 10
7 8 8 7 8 8 7 7 8 8 7 7 7 8 8 8 8 8 7 7 8 8 9 9 8 7 6 6 6 7 9 10 11 12 12 11 11 11 11 11 11 11
8 7 8 8 7 7 7 8 8 8 8 7 7 8 8 9 8 8 8 7 8 8 9 9 9 8 8 7 7 7 6 6 8 10 11 12 12 12 11 11 11 11
7 6 7 7 8 8 8 8 8 8 8 7 7 8 7 8 8 8 8 8 8 8 8 8 8 9 8 8 8 7 8 9 7 6 7 10 11 12 12 12 11 11
7 6 7 8 8 8 8 8 8 8 6 6 6 7 7 7 7 7 8 9 9 9 8 8 8 8 10 16 13 10 9 7 6 8 9 8 7 10 12 12 13 12
5 6 6 7 7 7 7 7 7 6 5 5 5 6 7 7 7 8 8 8 9 9 9 9 8 9 14 15 16 18 12 9 8 9 9 8 7 8 9 12 12 13
7 6 6 6 6 6 6 6 5 4 4 4 4 5 6 5 7 8 8 8 8 8 9 10 9 14 16 16 18 18 17 12 13 12 10 9 10 10 11 12 13 13
6 6 5 5 5 6 6 5 5 4 5 5 7 7 5 6 8 7 8 8 8 9 10 10 10 14 15 17 18 19 20 18 14 15 11 11 11 12 12 12 12 12
5 6 6 6 5 5 5 5 5 6 6 6 6 5 6 7 7 9 8 9 9 10 10 10 11 14 17 18 19 20 22 21 12 13 11 11 11 12 11 7 6 9
5 5 6 5 5 5 5 6 6 6 6 6 6 7 7 8 9 9 8 8 8 9 9 11 11 17 16 18 20 22 21 20 15 14 13 12 11 9 10 11 11 9
6 5 5 5 5 6 6 7 6 7 7 6 6 7 7 7 6 6 7 8 8 8 9 11 12 16 17 18 21 23 22 16 14 14 13 12 10 10 9 10 9 10
5 5 5 5 5 5 5 6 7 7 7 5 6 7 7 6 7 7 6 6 7 8 9 11 12 14 16 17 18 20 18 12 13 12 12 12 13 10 8 7 8 8
5 5 5 5 4 6 6 7 7 6 6 5 7 7 6 7 6 6 5 6 7 8 8 10 11 12 15 15 17 14 13 12 12 12 11 12 11 11 10 9 7 14
5 5 6 5 5 6 7 6 6 6 5 4 5 5 6 5 4 5 6 5 5 7 12 12 10 10 10 13 14 14 14 11 10 10 12 11 11 9 9 10 9 10
5 6 6 6 7 6 4 6 4 3 4 5 4 5 5 4 4 4 6 6 6 6 7 8 8 7 6 11 13 14 17 11 9 10 10 11 11 12 10 9 11 11
Wind_Direction
206 196 202 207 190 185 183 185 186 183 186 187 189 193 192 194 192 193 195 198 201 200 190 189 191 197 202 198 192 190 192 196 200 194 197 197 208 213 220 228 219 205
205 198 184 210 213 190 190 188 185 184 184 188 191 189 196 191 194 193 194 196 201 206 195 189 193 197 200 194 188 190 195 193 200 193 194 198 205 209 221 220 219 211
196 197 197 188 206 207 192 193 186 188 184 189 188 187 193 195 193 195 193 193 198 204 201 194 199 201 202 197 186 187 191 194 199 197 192 204 205 208 222 215 217 207
203 202 197 196 193 209 203 184 193 195 184 177 189 191 190 194 194 196 198 195 196 202 201 199 202 204 204 200 192 193 190 194 198 190 196 206 208 208 215 212 217 217
203 203 204 200 205 204 193 199 197 197 197 192 174 168 173 184 193 197 198 204 200 202 203 203 201 204 202 201 197 201 198 197 198 191 195 206 213 208 213 204 211 219
202 202 206 206 205 205 202 207 211 203 203 193 196 181 186 184 190 199 198 203 206 208 206 206 204 205 202 201 199 205 203 204 204 198 202 207 215 217 217 204 204 214
201 197 207 211 211 207 210 213 214 213 203 204 178 200 187 190 193 204 213 214 210 212 215 209 207 207 204 200 202 208 209 208 205 203 208 213 208 219 224 210 205 212
205 207 206 208 216 217 214 209 210 208 205 194 202 206 186 194 202 209 211 219 226 221 218 218 211 210 207 200 202 207 213 211 209 204 209 214 208 216 219 223 206 211
199 207 206 210 218 223 223 214 208 204 196 206 214 210 199 198 203 209 220 220 225 229 223 221 213 212 211 207 203 203 208 214 212 207 208 210 210 215 214 215 211 211
201 205 211 215 219 224 227 221 214 208 201 209 217 214 212 214 208 212 216 221 224 227 224 225 220 212 211 211 207 203 206 211 213 211 211 210 210 212 212 209 212 211
202 198 207 215 221 223 228 227 223 216 206 212 213 217 221 220 223 216 219 220 225 225 223 223 224 216 213 212 211 208 207 208 211 212 212 212 210 211 211 210 212 213
204 203 209 213 217 223 226 227 226 221 213 215 211 219 220 219 218 217 215 220 222 223 222 224 219 210 212 210 208 214 215 210 209 211 212 212 212 211 212 213 215 215
210 212 215 218 219 220 221 223 224 222 215 214 209 216 220 222 221 220 222 221 225 224 224 223 218 208 202 208 212 207 210 217 220 215 213 212 212 212 212 213 215 216
219 218 218 220 222 223 223 223 222 222 220 216 208 213 221 224 226 225 228 225 229 227 228 226 222 215 208 206 206 208 209 216 220 223 220 215 213 211 211 212 213 216
210 215 221 223 221 218 221 224 224 222 216 211 208 215 218 223 225 228 232 233 235 233 233 228 225 224 217 206 203 205 208 217 218 221 235 229 219 215 212 212 214 215
196 203 211 218 221 219 218 217 220 219 209 203 210 214 219 221 225 230 232 235 236 235 231 227 226 228 223 214 207 205 201 208 216 223 225 236 250 229 216 214 215 215
202 206 199 200 208 212 211 209 209 206 201 200 205 213 222 226 223 226 230 233 234 238 237 233 232 229 228 225 221 214 208 198 221 225 218 202 208 236 237 219 216 216
209 209 206 206 193 198 199 200 197 198 215 221 220 222 226 228 233 234 236 236 238 240 242 242 239 241 230 225 223 219 212 194 214 227 212 208 212 215 231 228 216 214
195 194 199 199 196 192 192 187 194 209 221 226 233 235 235 231 236 239 243 242 242 244 246 245 247 246 238 229 223 218 214 206 206 214 210 212 208 209 221 230 220 212
201 203 206 208 204 203 198 198 200 215 221 225 235 243 243 247 248 246 245 245 243 245 250 252 249 251 242 234 229 223 215 214 208 204 205 210 211 212 217 237 262 226
206 208 216 216 210 207 209 217 218 224 224 226 227 234 236 239 243 245 245 246 251 251 258 257 257 254 247 240 234 227 221 214 214 207 205 207 214 214 213 215 211 243
207 212 214 216 212 211 214 222 224 223 230 231 230 235 236 238 243 238 247 251 253 258 261 264 263 259 252 246 239 233 221 206 209 208 202 201 208 208 208 212 207 209
219 213 214 215 211 214 223 228 227 232 236 231 236 238 238 235 239 238 241 249 260 263 266 269 269 256 244 238 235 235 221 205 204 204 202 198 198 203 208 213 212 202
220 210 213 220 215 220 222 226 225 227 231 220 220 229 235 239 244 251 249 251 259 269 266 276 274 264 247 234 234 219 202 206 195 195 200 195 189 186 195 210 219 209
214 203 209 219 226 227 223 223 222 223 224 207 217 220 237 246 249 252 261 263 259 265 278 281 281 274 243 233 228 204 197 201 200 194 196 196 189 185 185 197 207 222
219 209 205 205 214 222 219 230 229 224 220 214 224 217 237 236 246 248 257 264 265 274 278 281 290 289 248 220 225 209 202 197 194 192 194 191 194 192 191 186 192 197